[[{"header":{"parameterUnit":"m.s-1","parameterCategory":2,"la1":30.2991,"la2":30.254,"lo1":-89.0895,"lo2":-89.0444,"dy":0.0017,"dx":0.0017,"nx":28,"ny":28,"refTime":"2024-12-06T09:00:00:Z","depth":"0","parameterNumber":2,"parameterNumberName":"U-component_of_CURRENTS"},"data":[0,0,0,0,0,0,0,0,0,0,0,0,0,0,0,0,0,0,0,0,0,0,0,0,0,0,0,0,0,0,0,0,0,0,0,0,0,0,0,0,0,0,0,0,0,0,0,0,0,0,0,0,0,0,0,0,0,0,-0.249,-0.249,0,-0.2507,-0.2507,-0.2507,-0.2471,-0.247,-0.2469,-0.2468,-0.2459,-0.2459,-0.246,0,0,0,0,0,0,0,0,0,0,0,0,0,-0.2433,-0.2434,-0.249,-0.249,-0.249,-0.2507,-0.2507,-0.2507,-0.2471,-0.247,-0.2469,-0.2467,-0.2458,-0.2459,-0.246,0,0,0,0,0,0,0,0,0,0,0,0,0,-0.2453,-0.2435,-0.2489,-0.2476,-0.2475,-0.2507,-0.2507,-0.2507,-0.2471,-0.247,-0.2468,-0.2467,-0.2458,-0.2459,-0.246,-0.2496,0,0,-0.2463,-0.2464,0,0,0,0,0,0,0,0,-0.2452,-0.2455,-0.2478,-0.2477,-0.2476,-0.2487,-0.2484,-0.2503,-0.2472,-0.2471,-0.2468,-0.2466,-0.2468,-0.2468,-0.2472,-0.2495,-0.2495,-0.2463,-0.2464,-0.2464,-0.2465,0,0,0,0,0,0,0,-0.2451,-0.2454,-0.2494,-0.2478,-0.2477,-0.2472,-0.2473,-0.2487,-0.2475,-0.247,-0.2468,-0.2474,-0.2467,-0.2471,-0.2472,-0.2495,-0.2463,-0.2464,-0.2465,-0.2465,-0.2531,-0.2532,0,0,0,0,0,0,-0.2454,-0.2453,-0.2494,-0.2495,-0.2462,-0.2474,-0.2475,-0.2483,-0.2476,-0.2474,-0.2475,-0.2472,-0.247,-0.2471,-0.2471,-0.2502,-0.2464,-0.2465,-0.2466,-0.253,-0.2531,-0.2532,0,0,0,0,0,0,-0.2453,-0.2458,-0.2493,-0.2475,-0.248,-0.2477,-0.2486,-0.2484,-0.2483,-0.248,-0.2477,-0.2475,-0.2469,-0.247,-0.2482,-0.2502,-0.2466,-0.2467,-0.2528,-0.253,-0.2532,-0.2571,0,0,0,0,0,0,-0.2451,-0.2457,-0.2461,-0.2476,-0.2481,-0.2513,-0.2488,-0.2486,-0.249,-0.2486,-0.2479,-0.2477,-0.2468,-0.2481,-0.2483,-0.2502,-0.2467,-0.2527,-0.2529,-0.2531,-0.2568,-0.2574,-0.2579,0,0,0,0,0,-0.2449,-0.2463,-0.2461,-0.2466,-0.2488,-0.2514,-0.2516,-0.2507,-0.2491,-0.2498,-0.2491,-0.2477,-0.2496,-0.2483,-0.2485,-0.2505,-0.2526,-0.2529,-0.2531,-0.2566,-0.2573,-0.2578,0,0,0,0,0,0,-0.2439,-0.2462,-0.246,-0.2478,-0.2496,-0.2509,-0.2514,-0.2512,-0.2513,-0.2504,-0.2494,-0.2492,-0.2511,-0.2507,-0.2492,-0.2531,-0.2509,-0.2512,-0.2534,-0.2541,-0.2546,-0.2543,-0.2468,0,0,0,0,0,-0.2442,-0.2454,-0.2478,-0.249,-0.2501,-0.2508,-0.2516,-0.2515,-0.2521,-0.2519,-0.2516,-0.2515,-0.2528,-0.253,-0.2539,-0.2563,-0.2552,-0.2577,-0.2583,-0.2587,-0.2587,-0.2585,-0.2589,-0.2541,-0.2541,-0.2541,0,0,-0.244,-0.2454,-0.246,-0.2489,-0.2497,-0.2525,-0.2508,-0.2525,-0.2544,-0.252,-0.2537,-0.2535,-0.2539,-0.2562,-0.257,-0.2557,-0.2598,-0.259,-0.2594,-0.2592,-0.2588,-0.2592,-0.2596,-0.2543,-0.2542,-0.2542,0,0,-0.2449,-0.2458,-0.2474,-0.2496,-0.2519,-0.2532,-0.2539,-0.2557,-0.2559,-0.2584,-0.257,-0.2579,-0.2596,-0.2601,-0.2607,-0.2649,-0.2626,-0.2652,-0.2675,-0.2673,-0.2677,-0.268,-0.268,-0.2683,-0.2653,-0.2653,-0.2653,0,-0.2445,-0.2472,-0.2483,-0.2511,-0.253,-0.2538,-0.2566,-0.2582,-0.26,-0.2608,-0.2592,-0.2617,-0.2617,-0.2648,-0.2658,-0.2661,-0.2652,-0.265,-0.2679,-0.2681,-0.2684,-0.2683,-0.2685,-0.2656,-0.2655,-0.2655,-0.2655,0,-0.2471,-0.2496,-0.2509,-0.2547,-0.2571,-0.2595,-0.2625,-0.2643,-0.2645,-0.2656,-0.2679,-0.2677,-0.2687,-0.2695,-0.2688,-0.2713,-0.27,-0.2685,-0.266,-0.2691,-0.2689,-0.269,-0.2659,-0.2658,-0.2657,-0.2657,0,0,-0.2448,-0.2515,-0.2517,-0.2542,-0.259,-0.2611,-0.2654,-0.2692,-0.2715,-0.2724,-0.2749,-0.2764,-0.2749,-0.2754,-0.2748,-0.2747,-0.2759,-0.2722,-0.2721,-0.2717,-0.2753,-0.272,-0.2718,-0.2744,-0.2744,-0.2745,-0.2748,0,-0.2461,-0.2514,-0.2549,-0.2599,-0.2627,-0.2662,-0.2703,-0.2738,-0.2757,-0.2785,-0.2785,-0.2804,-0.2778,-0.2779,-0.2776,-0.2767,-0.2764,-0.276,-0.2729,-0.2728,-0.2689,-0.2719,-0.2636,-0.263,-0.2749,-0.275,-0.275,0,-0.2468,-0.2504,-0.2555,-0.2625,-0.2641,-0.2673,-0.2728,-0.2768,-0.2816,-0.2832,-0.2845,-0.2845,-0.2857,-0.2824,-0.2813,-0.2808,-0.2782,-0.2768,-0.2768,-0.2721,-0.2697,-0.2617,-0.2628,-0.2613,-0.2752,-0.2752,-0.2752,0,-0.2428,-0.2505,-0.2542,-0.2566,-0.2649,-0.2673,-0.271,-0.2767,-0.2801,-0.2852,-0.2872,-0.2886,-0.2886,-0.2864,-0.2834,-0.2822,-0.2817,-0.2797,-0.2743,-0.2741,-0.2657,-0.2646,-0.2643,-0.2782,-0.2782,-0.2782,-0.2782,0,-0.2422,-0.2448,-0.2523,-0.2541,-0.2583,-0.2647,-0.2693,-0.2738,-0.2802,-0.2843,-0.2876,-0.2901,-0.2892,-0.2889,-0.2856,-0.2808,-0.2831,-0.2752,-0.274,-0.267,-0.2661,-0.2633,-0.2639,-0.2782,-0.2782,-0.2782,-0.2782,0,-0.2364,-0.2422,-0.2462,-0.2541,-0.2563,-0.2584,-0.2667,-0.2701,-0.2772,-0.2827,-0.2842,-0.2904,-0.2907,-0.2897,-0.2874,-0.2827,-0.2747,-0.2769,-0.2691,-0.2669,-0.2595,-0.2606,-0.2547,-0.2475,-0.271,-0.2709,-0.2708,0,-0.2339,-0.2353,-0.243,-0.2447,-0.2476,-0.2524,-0.256,-0.2659,-0.2701,-0.2823,-0.284,-0.2883,-0.2902,-0.2871,-0.2816,-0.2765,-0.2715,-0.2641,-0.2599,-0.2586,-0.2589,-0.2563,-0.2504,-0.2509,-0.2507,-0.2505,-0.2504,0,-0.227,-0.2296,-0.2325,-0.2359,-0.2393,-0.2441,-0.25,-0.2536,-0.2662,-0.2718,-0.279,-0.2824,-0.2844,-0.2778,-0.2727,-0.2666,-0.2575,-0.26,-0.26,-0.2447,-0.2402,-0.2328,-0.2524,-0.2487,-0.2489,-0.249,-0.2491,-0.2492,-0.2195,-0.2194,-0.2227,-0.2248,-0.2289,-0.232,-0.2317,-0.2411,-0.2465,-0.2542,-0.2668,-0.2713,-0.272,-0.2647,-0.2594,-0.247,-0.2474,-0.238,-0.2401,-0.238,-0.229,-0.2456,-0.2397,-0.2398,-0.2399,-0.24,-0.2401,0,-0.2089,-0.2098,-0.2113,-0.213,-0.2119,-0.2187,-0.2244,-0.2224,-0.2246,-0.2394,-0.2453,-0.256,-0.2494,-0.2493,-0.2406,-0.2306,-0.2215,-0.2232,-0.2177,-0.2128,-0.2286,-0.2256,-0.2146,-0.2146,-0.2146,-0.2146,-0.2146,-0.2146,-0.2031,-0.1999,-0.2006,-0.1942,-0.1953,-0.1895,-0.1897,-0.1904,-0.197,-0.2062,-0.2199,-0.2361,-0.2401,-0.2487,-0.2352,-0.223,-0.2135,-0.2064,-0.2066,-0.2202,-0.2218,-0.2233,-0.2206,-0.2088,-0.2088,-0.1828,-0.1826,-0.1825]},{"header":{"parameterUnit":"m.s-1","parameterCategory":2,"la1":30.2991,"la2":30.254,"lo1":-89.0895,"lo2":-89.0444,"dy":0.0017,"dx":0.0017,"nx":28,"ny":28,"refTime":"2024-12-06T09:00:00:Z","depth":"0","parameterNumber":3,"parameterNumberName":"V-component_of_CURRENTS"},"data":[0,0,0,0,0,0,0,0,0,0,0,0,0,0,0,0,0,0,0,0,0,0,0,0,0,0,0,0,0,0,0,0,0,0,0,0,0,0,0,0,0,0,0,0,0,0,0,0,0,0,0,0,0,0,0,0,0,0,-0.0386,-0.0385,0,-0.0319,-0.0318,-0.0317,-0.0267,-0.0267,-0.0267,-0.0266,-0.0156,-0.0153,-0.0151,0,0,0,0,0,0,0,0,0,0,0,0,0,-0.0429,-0.0428,-0.0386,-0.0385,-0.0384,-0.0319,-0.0318,-0.0317,-0.0267,-0.0267,-0.0267,-0.0266,-0.0157,-0.0154,-0.0151,0,0,0,0,0,0,0,0,0,0,0,0,0,-0.039,-0.0428,-0.0386,-0.0352,-0.0349,-0.0319,-0.0318,-0.0317,-0.0267,-0.0267,-0.0266,-0.0266,-0.0158,-0.0154,-0.015,-0.0136,0,0,-0.0138,-0.0136,0,0,0,0,0,0,0,0,-0.0392,-0.0388,-0.0358,-0.0355,-0.0351,-0.0302,-0.0293,-0.0255,-0.0268,-0.0297,-0.0266,-0.0266,-0.0202,-0.0194,-0.0182,-0.0131,-0.0127,-0.0138,-0.0135,-0.0134,-0.0133,0,0,0,0,0,0,0,-0.0395,-0.0391,-0.0358,-0.0357,-0.0353,-0.0326,-0.0321,-0.0285,-0.0252,-0.0295,-0.0291,-0.0285,-0.0199,-0.0186,-0.0179,-0.0125,-0.0138,-0.0134,-0.0132,-0.0131,-0.0048,-0.0048,0,0,0,0,0,0,-0.0408,-0.0394,-0.036,-0.0356,-0.0372,-0.0326,-0.032,-0.0317,-0.0253,-0.0243,-0.0286,-0.0283,-0.0193,-0.0184,-0.0175,-0.0152,-0.0134,-0.013,-0.0128,-0.0048,-0.0048,-0.0048,0,0,0,0,0,0,-0.0409,-0.0406,-0.0363,-0.0374,-0.0367,-0.0327,-0.0324,-0.0316,-0.0302,-0.0247,-0.0236,-0.028,-0.0192,-0.018,-0.0145,-0.0147,-0.0128,-0.0125,-0.0048,-0.0048,-0.0048,-0.0107,0,0,0,0,0,0,-0.0411,-0.0407,-0.041,-0.0375,-0.0367,-0.0351,-0.0324,-0.0315,-0.03,-0.0296,-0.0238,-0.0227,-0.0191,-0.0152,-0.0142,-0.0141,-0.0122,-0.0048,-0.0048,-0.0048,-0.0105,-0.011,-0.0113,0,0,0,0,0,-0.0413,-0.0422,-0.0411,-0.0407,-0.0373,-0.0352,-0.0345,-0.0314,-0.03,-0.0298,-0.0259,-0.0229,-0.0146,-0.0149,-0.0137,-0.0135,-0.0047,-0.0048,-0.0048,-0.0103,-0.0109,-0.0113,0,0,0,0,0,0,-0.0442,-0.0417,-0.0404,-0.0405,-0.0383,-0.0344,-0.034,-0.0319,-0.0287,-0.0282,-0.023,-0.0216,-0.0187,-0.0154,-0.0158,-0.0113,-0.0092,-0.009,-0.0138,-0.0143,-0.0147,-0.0158,-0.0118,0,0,0,0,0,-0.0452,-0.0453,-0.0422,-0.0423,-0.0415,-0.0379,-0.0367,-0.0347,-0.0314,-0.0299,-0.0259,-0.0216,-0.018,-0.0157,-0.0121,-0.0096,-0.0057,-0.0087,-0.0091,-0.0095,-0.0096,-0.004,-0.0039,-0.005,-0.005,-0.0049,0,0,-0.0464,-0.045,-0.045,-0.043,-0.0409,-0.0406,-0.037,-0.0357,-0.035,-0.0292,-0.027,-0.023,-0.0177,-0.0149,-0.0133,-0.0121,-0.0073,-0.0096,-0.0099,-0.0098,-0.004,-0.0039,-0.0038,-0.005,-0.005,-0.005,0,0,-0.0493,-0.0476,-0.0489,-0.0475,-0.0452,-0.0428,-0.0428,-0.0392,-0.0372,-0.0347,-0.0304,-0.0264,-0.0212,-0.0171,-0.0144,-0.0148,-0.0099,-0.0141,-0.0165,-0.0111,-0.0109,-0.0107,-0.0064,-0.0058,-0.014,-0.014,-0.014,0,-0.0509,-0.052,-0.0488,-0.0497,-0.0491,-0.0443,-0.0455,-0.0426,-0.0384,-0.0366,-0.0349,-0.0264,-0.022,-0.0175,-0.0178,-0.0156,-0.0123,-0.0152,-0.0116,-0.0113,-0.011,-0.0067,-0.0059,-0.0143,-0.0142,-0.0142,-0.0142,0,-0.0548,-0.0555,-0.0561,-0.0556,-0.0543,-0.0545,-0.0506,-0.0487,-0.0455,-0.0421,-0.0373,-0.031,-0.0256,-0.0238,-0.0209,-0.0169,-0.0152,-0.0131,-0.0106,-0.0113,-0.0066,-0.0058,-0.0147,-0.0146,-0.0145,-0.0144,0,0,-0.0589,-0.0591,-0.0593,-0.0606,-0.0577,-0.0575,-0.0556,-0.0526,-0.0513,-0.0457,-0.0431,-0.0362,-0.0319,-0.0286,-0.0237,-0.019,-0.0143,-0.0159,-0.0155,-0.0121,-0.0031,0.0017,0.0031,-0.0117,-0.0116,-0.0115,-0.001,0,-0.063,-0.0671,-0.065,-0.0678,-0.0696,-0.0647,-0.0636,-0.0598,-0.055,-0.0511,-0.0428,-0.0386,-0.0338,-0.0314,-0.0257,-0.0168,-0.0122,-0.0174,-0.0025,-0.0021,0.002,0.0043,0.0071,0.017,-0.0001,0.0001,0.0002,0,-0.0676,-0.0698,-0.0741,-0.0749,-0.075,-0.0752,-0.0724,-0.0705,-0.0627,-0.0589,-0.0517,-0.045,-0.0363,-0.033,-0.0174,-0.0211,-0.0131,-0.0063,-0.0057,0.0016,0.0044,0.0153,0.0194,0.0359,0.0016,0.0015,0.0014,0,-0.0734,-0.076,-0.08,-0.0804,-0.08,-0.0803,-0.079,-0.0731,-0.0717,-0.0633,-0.0607,-0.0489,-0.043,-0.0307,-0.0156,-0.0166,0.0012,0.0021,0.0138,0.0142,0.0211,0.0219,0.0428,0.0121,0.012,0.012,0.012,0,-0.0791,-0.0821,-0.0834,-0.0858,-0.0898,-0.0866,-0.0881,-0.0844,-0.079,-0.0772,-0.0652,-0.0604,-0.0423,-0.0295,-0.0165,0.0027,0.0015,0.0144,0.018,0.0191,0.0195,0.0378,0.0436,0.0124,0.0123,0.0122,0.0122,0,-0.0849,-0.0855,-0.0907,-0.0924,-0.093,-0.0958,-0.0957,-0.0962,-0.0894,-0.0863,-0.084,-0.0685,-0.0505,-0.0317,-0.0107,0.0017,0.0291,0.0251,0.0248,0.0282,0.0542,0.0594,0.0824,0.0895,0.0401,0.0403,0.0405,0,-0.0883,-0.0916,-0.0966,-0.1005,-0.1016,-0.1048,-0.1068,-0.1023,-0.1022,-0.0909,-0.0899,-0.072,-0.0584,-0.0241,0.0014,0.0271,0.0378,0.0435,0.0428,0.0578,0.0662,0.0695,0.0739,0.0493,0.0495,0.0497,0.0498,0,-0.0946,-0.0962,-0.1006,-0.109,-0.1132,-0.1175,-0.1195,-0.1211,-0.1144,-0.1095,-0.099,-0.0867,-0.051,-0.0187,0.0162,0.0317,0.0559,0.048,0.0648,0.0768,0.0807,0.0884,0.0391,0.0514,0.0512,0.0511,0.051,0.051,-0.0985,-0.1038,-0.1099,-0.1174,-0.1231,-0.1289,-0.1323,-0.1322,-0.131,-0.1223,-0.108,-0.0865,-0.0367,0.0144,0.0334,0.0755,0.0707,0.0872,0.0925,0.0948,0.1018,0.0556,0.0711,0.0711,0.071,0.071,0.071,0,-0.1036,-0.1095,-0.1178,-0.1265,-0.1344,-0.135,-0.1397,-0.1411,-0.14,-0.1275,-0.1145,-0.061,-0.0111,0.0356,0.0961,0.1189,0.1219,0.1301,0.1363,0.1387,0.1003,0.1009,0.1221,0.1221,0.1221,0.1221,0.122,0.122,-0.1065,-0.1156,-0.1202,-0.134,-0.1403,-0.1483,-0.1512,-0.1505,-0.1434,-0.1221,-0.0939,-0.071,0.0013,0.1019,0.1588,0.1632,0.179,0.1786,0.1868,0.1616,0.1579,0.1545,0.1568,0.1894,0.1895,0.2228,0.2232,0.2235]}],[{"header":{"parameterUnit":"m.s-1","parameterCategory":2,"la1":30.2991,"la2":30.254,"lo1":-89.0895,"lo2":-89.0444,"dy":0.0017,"dx":0.0017,"nx":28,"ny":28,"refTime":"2024-12-06T09:00:00:Z","depth":"2","parameterNumber":2,"parameterNumberName":"U-component_of_CURRENTS"},"data":[0,0,0,0,0,0,0,0,0,0,0,0,0,0,0,0,0,0,0,0,0,0,0,0,0,0,0,0,0,0,0,0,0,0,0,0,0,0,0,0,0,0,0,0,0,0,0,0,0,0,0,0,0,0,0,0,0,0,-0.2335,-0.2335,0,-0.2354,-0.2354,-0.2354,-0.2323,-0.2322,-0.2321,-0.2321,-0.2312,-0.2312,-0.2313,0,0,0,0,0,0,0,0,0,0,0,0,0,-0.2277,-0.2278,-0.2335,-0.2335,-0.2336,-0.2354,-0.2354,-0.2354,-0.2323,-0.2322,-0.2321,-0.232,-0.2312,-0.2312,-0.2313,0,0,0,0,0,0,0,0,0,0,0,0,0,-0.2297,-0.2278,-0.2335,-0.2324,-0.2324,-0.2354,-0.2354,-0.2354,-0.2323,-0.2322,-0.2321,-0.232,-0.2311,-0.2312,-0.2313,-0.2344,0,0,-0.2316,-0.2316,0,0,0,0,0,0,0,0,-0.2296,-0.2299,-0.2325,-0.2325,-0.2324,-0.2337,-0.233,-0.235,-0.2324,-0.2321,-0.2321,-0.2319,-0.232,-0.232,-0.2324,-0.2343,-0.2343,-0.2316,-0.2316,-0.2317,-0.2317,0,0,0,0,0,0,0,-0.2295,-0.2298,-0.234,-0.2326,-0.2325,-0.232,-0.2322,-0.2334,-0.2325,-0.2321,-0.232,-0.2326,-0.2319,-0.2323,-0.2323,-0.2343,-0.2316,-0.2316,-0.2317,-0.2317,-0.2379,-0.238,0,0,0,0,0,0,-0.2299,-0.2297,-0.2339,-0.2341,-0.2309,-0.2323,-0.2324,-0.2332,-0.2326,-0.2324,-0.2327,-0.2324,-0.2322,-0.2322,-0.2323,-0.2356,-0.2317,-0.2317,-0.2318,-0.2378,-0.238,-0.2381,0,0,0,0,0,0,-0.2297,-0.2302,-0.2339,-0.2321,-0.2325,-0.2325,-0.2335,-0.2333,-0.2335,-0.2331,-0.2328,-0.2329,-0.2321,-0.2322,-0.2335,-0.2355,-0.2318,-0.2319,-0.2377,-0.2379,-0.238,-0.2424,0,0,0,0,0,0,-0.2296,-0.2302,-0.2307,-0.2321,-0.2327,-0.2359,-0.2336,-0.2335,-0.2342,-0.2338,-0.2332,-0.233,-0.232,-0.2334,-0.2335,-0.2356,-0.2319,-0.2375,-0.2378,-0.238,-0.2421,-0.2427,-0.2432,0,0,0,0,0,-0.2293,-0.2307,-0.2307,-0.2312,-0.2334,-0.2361,-0.2363,-0.2356,-0.2343,-0.2351,-0.2345,-0.233,-0.2348,-0.2335,-0.2337,-0.2358,-0.2374,-0.2377,-0.238,-0.2419,-0.2426,-0.2432,0,0,0,0,0,0,-0.2284,-0.2307,-0.2306,-0.2325,-0.2343,-0.2356,-0.2362,-0.2362,-0.2365,-0.2358,-0.2346,-0.2345,-0.2365,-0.2359,-0.2345,-0.2383,-0.2359,-0.2362,-0.2388,-0.2395,-0.24,-0.2397,-0.232,0,0,0,0,0,-0.2287,-0.2299,-0.2323,-0.2337,-0.2348,-0.2357,-0.2365,-0.2366,-0.2373,-0.2372,-0.2369,-0.2369,-0.238,-0.2383,-0.239,-0.2414,-0.2402,-0.2429,-0.2434,-0.2439,-0.2438,-0.2437,-0.2442,-0.2389,-0.2389,-0.2389,0,0,-0.2285,-0.23,-0.2306,-0.2335,-0.2345,-0.2373,-0.2357,-0.2376,-0.2396,-0.2372,-0.2391,-0.239,-0.2391,-0.2414,-0.2423,-0.2409,-0.245,-0.2442,-0.2446,-0.2443,-0.244,-0.2445,-0.2449,-0.2391,-0.2391,-0.239,0,0,-0.2295,-0.2305,-0.2322,-0.2344,-0.2369,-0.2381,-0.2389,-0.2409,-0.2413,-0.2438,-0.2426,-0.2435,-0.2451,-0.2456,-0.2461,-0.2503,-0.248,-0.2507,-0.2531,-0.253,-0.2534,-0.2538,-0.2539,-0.2542,-0.2508,-0.2508,-0.2508,0,-0.2292,-0.2319,-0.2331,-0.2359,-0.2378,-0.2388,-0.2417,-0.2433,-0.2453,-0.2462,-0.2448,-0.2473,-0.2473,-0.2502,-0.2514,-0.2516,-0.2508,-0.2505,-0.2537,-0.2539,-0.2542,-0.2542,-0.2545,-0.2511,-0.251,-0.251,-0.251,0,-0.2318,-0.2343,-0.2357,-0.2395,-0.2419,-0.2444,-0.2474,-0.2494,-0.2499,-0.2511,-0.2536,-0.2534,-0.2544,-0.2553,-0.2546,-0.2571,-0.2559,-0.2544,-0.2517,-0.255,-0.2548,-0.255,-0.2514,-0.2513,-0.2512,-0.2512,0,0,-0.2297,-0.2362,-0.2365,-0.2389,-0.2439,-0.246,-0.2503,-0.2541,-0.2565,-0.2577,-0.2603,-0.2619,-0.2607,-0.2612,-0.2606,-0.2606,-0.2623,-0.2583,-0.2582,-0.258,-0.262,-0.2584,-0.2582,-0.2609,-0.2609,-0.2609,-0.2615,0,-0.231,-0.2362,-0.2396,-0.2446,-0.2474,-0.2509,-0.255,-0.2586,-0.2607,-0.2636,-0.2639,-0.2659,-0.2635,-0.2638,-0.2637,-0.2629,-0.2628,-0.2623,-0.2593,-0.2592,-0.2551,-0.2584,-0.2377,-0.2362,-0.2617,-0.2617,-0.2617,0,-0.2318,-0.2353,-0.2403,-0.2471,-0.2487,-0.252,-0.2576,-0.2615,-0.2664,-0.2682,-0.2698,-0.27,-0.2714,-0.2683,-0.2676,-0.2671,-0.2648,-0.2636,-0.2635,-0.2584,-0.2559,-0.2369,-0.2355,-0.262,-0.262,-0.262,-0.262,0,-0.228,-0.2355,-0.2392,-0.2415,-0.2496,-0.2521,-0.2559,-0.2616,-0.2649,-0.2703,-0.2724,-0.2741,-0.2744,-0.2725,-0.2699,-0.2687,-0.2685,-0.2665,-0.2612,-0.2609,-0.2419,-0.2399,-0.2654,-0.2654,-0.2654,-0.2654,-0.2654,0,-0.2274,-0.2301,-0.2374,-0.2393,-0.2435,-0.2498,-0.2544,-0.2589,-0.2654,-0.2694,-0.273,-0.2754,-0.2751,-0.275,-0.272,-0.2675,-0.2699,-0.2621,-0.2609,-0.2431,-0.2413,-0.2621,-0.2617,-0.2654,-0.2654,-0.2654,-0.2654,0,-0.2221,-0.2276,-0.2316,-0.2393,-0.2417,-0.2438,-0.252,-0.2553,-0.2625,-0.2679,-0.2696,-0.2758,-0.2764,-0.2757,-0.2738,-0.2693,-0.2663,-0.2638,-0.2435,-0.24,-0.2583,-0.2581,-0.2581,-0.258,-0.2579,-0.2578,-0.2578,0,-0.2197,-0.2212,-0.2287,-0.2304,-0.2334,-0.2382,-0.2418,-0.2515,-0.2554,-0.2674,-0.269,-0.2735,-0.275,-0.2723,-0.2656,-0.2605,-0.2643,-0.2379,-0.2321,-0.2588,-0.2576,-0.2576,-0.2576,-0.2086,-0.2082,-0.2078,-0.2075,0,-0.2133,-0.2159,-0.2187,-0.222,-0.2255,-0.23,-0.2358,-0.239,-0.2512,-0.2565,-0.2632,-0.2662,-0.2669,-0.253,-0.2477,-0.2409,-0.2375,-0.2301,-0.2615,-0.2151,-0.2125,-0.2113,-0.2128,-0.2041,-0.2044,-0.2046,-0.2048,-0.205,-0.2063,-0.2062,-0.2094,-0.2115,-0.2155,-0.2181,-0.2176,-0.2259,-0.2307,-0.2357,-0.2483,-0.2458,-0.2444,-0.2272,-0.2164,-0.2063,-0.2224,-0.2087,-0.2097,-0.2111,-0.2066,-0.2041,-0.1933,-0.1936,-0.1938,-0.194,-0.1942,0,-0.1961,-0.1971,-0.1985,-0.2001,-0.1987,-0.2055,-0.2104,-0.2068,-0.2076,-0.2165,-0.22,-0.2004,-0.1936,-0.192,-0.1735,-0.1707,-0.1657,-0.1607,-0.1531,-0.1567,-0.1598,-0.1525,-0.125,-0.1247,-0.1245,-0.1243,0,0,-0.1906,-0.1874,-0.1879,-0.1815,-0.1827,-0.1765,-0.1763,-0.1738,-0.1753,-0.1709,-0.1704,-0.1862,-0.1899,-0.1585,-0.1503,-0.1353,-0.144,-0.1279,-0.1836,-0.1784,-0.1813,-0.188,-0.181,0,0,0,0,0]},{"header":{"parameterUnit":"m.s-1","parameterCategory":2,"la1":30.2991,"la2":30.254,"lo1":-89.0895,"lo2":-89.0444,"dy":0.0017,"dx":0.0017,"nx":28,"ny":28,"refTime":"2024-12-06T09:00:00:Z","depth":"2","parameterNumber":3,"parameterNumberName":"V-component_of_CURRENTS"},"data":[0,0,0,0,0,0,0,0,0,0,0,0,0,0,0,0,0,0,0,0,0,0,0,0,0,0,0,0,0,0,0,0,0,0,0,0,0,0,0,0,0,0,0,0,0,0,0,0,0,0,0,0,0,0,0,0,0,0,-0.0298,-0.0297,0,-0.0233,-0.0232,-0.0231,-0.0184,-0.0184,-0.0184,-0.0183,-0.0075,-0.0073,-0.007,0,0,0,0,0,0,0,0,0,0,0,0,0,-0.0336,-0.0336,-0.0298,-0.0297,-0.0296,-0.0233,-0.0232,-0.0231,-0.0184,-0.0184,-0.0184,-0.0183,-0.0076,-0.0073,-0.007,0,0,0,0,0,0,0,0,0,0,0,0,0,-0.0299,-0.0336,-0.0298,-0.0266,-0.0263,-0.0233,-0.0232,-0.0231,-0.0184,-0.0184,-0.0183,-0.0183,-0.0077,-0.0074,-0.007,-0.0054,0,0,-0.0058,-0.0056,0,0,0,0,0,0,0,0,-0.0301,-0.0298,-0.0271,-0.0268,-0.0264,-0.0217,-0.0206,-0.017,-0.0184,-0.0213,-0.0183,-0.0183,-0.012,-0.0113,-0.01,-0.0049,-0.0045,-0.0057,-0.0055,-0.0053,-0.0052,0,0,0,0,0,0,0,-0.0304,-0.03,-0.0271,-0.0271,-0.0267,-0.024,-0.0235,-0.0199,-0.0168,-0.021,-0.0207,-0.0202,-0.0117,-0.0104,-0.0097,-0.0043,-0.0058,-0.0054,-0.0052,-0.005,0.0031,0.0031,0,0,0,0,0,0,-0.0317,-0.0303,-0.0273,-0.0269,-0.0283,-0.024,-0.0234,-0.0232,-0.0169,-0.016,-0.0202,-0.02,-0.0111,-0.0102,-0.0093,-0.0072,-0.0053,-0.005,-0.0048,0.0031,0.0031,0.0031,0,0,0,0,0,0,-0.0318,-0.0315,-0.0276,-0.0285,-0.0278,-0.024,-0.0238,-0.0231,-0.0218,-0.0164,-0.0153,-0.0197,-0.011,-0.0099,-0.0065,-0.0068,-0.0048,-0.0044,0.0032,0.0031,0.0031,-0.003,0,0,0,0,0,0,-0.032,-0.0316,-0.032,-0.0286,-0.0278,-0.0265,-0.0238,-0.023,-0.0216,-0.0212,-0.0156,-0.0145,-0.0109,-0.0071,-0.0061,-0.0062,-0.0041,0.0032,0.0032,0.0031,-0.0028,-0.0032,-0.0036,0,0,0,0,0,-0.0321,-0.0332,-0.0321,-0.0317,-0.0285,-0.0265,-0.0259,-0.0229,-0.0216,-0.0215,-0.0176,-0.0147,-0.0066,-0.0068,-0.0056,-0.0056,0.0032,0.0032,0.0031,-0.0026,-0.0031,-0.0036,0,0,0,0,0,0,-0.035,-0.0327,-0.0315,-0.0317,-0.0296,-0.0258,-0.0255,-0.0235,-0.0204,-0.02,-0.0148,-0.0135,-0.0107,-0.0074,-0.0078,-0.0034,-0.0013,-0.0011,-0.006,-0.0065,-0.0069,-0.008,-0.0038,0,0,0,0,0,-0.036,-0.0361,-0.0332,-0.0335,-0.0327,-0.0292,-0.0281,-0.0262,-0.023,-0.0216,-0.0177,-0.0135,-0.0099,-0.0077,-0.0042,-0.0017,0.0021,-0.0009,-0.0014,-0.0018,-0.0018,0.0036,0.0037,0.003,0.003,0.003,0,0,-0.0372,-0.0359,-0.036,-0.0341,-0.0321,-0.0318,-0.0284,-0.0273,-0.0267,-0.0209,-0.0189,-0.015,-0.0097,-0.007,-0.0055,-0.0042,0.0003,-0.0018,-0.0022,-0.002,0.0036,0.0037,0.0038,0.003,0.003,0.003,0,0,-0.0401,-0.0386,-0.0398,-0.0386,-0.0365,-0.0341,-0.0342,-0.0308,-0.0289,-0.0265,-0.0223,-0.0185,-0.0134,-0.0094,-0.0067,-0.0072,-0.0024,-0.0065,-0.009,-0.0037,-0.0036,-0.0035,0.0007,0.0013,-0.0064,-0.0064,-0.0064,0,-0.0417,-0.0429,-0.0399,-0.0408,-0.0403,-0.0356,-0.0368,-0.0341,-0.0301,-0.0284,-0.0268,-0.0185,-0.0143,-0.01,-0.0103,-0.0081,-0.0049,-0.0077,-0.0043,-0.0041,-0.0038,0.0005,0.0012,-0.0067,-0.0067,-0.0067,-0.0066,0,-0.0456,-0.0464,-0.047,-0.0466,-0.0454,-0.0457,-0.0419,-0.0402,-0.0373,-0.034,-0.0295,-0.0233,-0.0181,-0.0164,-0.0134,-0.0097,-0.008,-0.0058,-0.0033,-0.0041,0.0005,0.0013,-0.0071,-0.007,-0.0069,-0.0069,0,0,-0.0496,-0.0499,-0.0501,-0.0514,-0.0488,-0.0486,-0.047,-0.0441,-0.043,-0.0377,-0.0353,-0.0286,-0.0245,-0.0213,-0.0165,-0.0119,-0.0076,-0.0089,-0.0085,-0.0052,0.0033,0.0075,0.0089,-0.005,-0.0048,-0.0047,0.0055,0,-0.0537,-0.0577,-0.0557,-0.0586,-0.0604,-0.0557,-0.0548,-0.0512,-0.0468,-0.043,-0.0351,-0.0311,-0.0265,-0.0242,-0.0187,-0.0099,-0.0055,-0.0106,0.0041,0.0045,0.0081,0.01,0.0067,0.0158,0.0064,0.0065,0.0066,0,-0.0582,-0.0604,-0.0647,-0.0655,-0.0657,-0.066,-0.0634,-0.0617,-0.0544,-0.0508,-0.044,-0.0376,-0.0292,-0.0259,-0.0108,-0.0143,-0.0066,0.0001,0.0007,0.0075,0.0104,0.0155,0.0178,0.0081,0.008,0.0079,0.0078,0,-0.0639,-0.0665,-0.0704,-0.0708,-0.0706,-0.071,-0.0699,-0.0644,-0.0631,-0.0552,-0.0527,-0.0414,-0.0358,-0.0238,-0.0092,-0.01,0.0073,0.0083,0.0193,0.0196,0.0213,0.0217,0.0179,0.0179,0.0179,0.0178,0.0178,0,-0.0694,-0.0724,-0.0738,-0.0761,-0.0801,-0.0771,-0.0788,-0.0753,-0.0703,-0.0687,-0.0573,-0.0528,-0.0352,-0.0228,-0.01,0.0083,0.0074,0.0197,0.0232,0.0191,0.019,0.0159,0.0155,0.0182,0.0181,0.0181,0.018,0,-0.0751,-0.0757,-0.0808,-0.0826,-0.0833,-0.0861,-0.0862,-0.0868,-0.0804,-0.0776,-0.0755,-0.0607,-0.0435,-0.0252,-0.0047,0.0072,0.024,0.0299,0.0235,0.0262,0.0326,0.0318,0.0436,0.0438,0.0441,0.0442,0.0444,0,-0.0784,-0.0817,-0.0866,-0.0904,-0.0917,-0.0949,-0.097,-0.0927,-0.0928,-0.0822,-0.0814,-0.0643,-0.0514,-0.0183,0.0056,0.0302,0.0293,0.0408,0.0393,0.0333,0.0356,0.0344,0.0333,0.0386,0.0387,0.0388,0.0388,0,-0.0846,-0.0862,-0.0905,-0.0988,-0.103,-0.1072,-0.1093,-0.1109,-0.1045,-0.1001,-0.0904,-0.0787,-0.0453,-0.0173,0.0159,0.0298,0.0372,0.0432,0.0401,0.0326,0.0295,0.0314,0.0303,0.0395,0.0394,0.0394,0.0393,0.0393,-0.0885,-0.0936,-0.0996,-0.107,-0.1127,-0.1182,-0.1215,-0.1213,-0.1203,-0.1115,-0.0987,-0.078,-0.0485,-0.0011,0.0231,0.0461,0.0453,0.0506,0.05,0.0494,0.047,0.0445,0.0568,0.0568,0.0568,0.0569,0.0569,0,-0.0935,-0.0993,-0.1074,-0.1159,-0.1234,-0.1243,-0.1288,-0.1292,-0.128,-0.1158,-0.1033,-0.0694,-0.0352,-0.004,0.033,0.0549,0.0523,0.058,0.05,0.0493,0.0487,0.0459,0.0555,0.0556,0.0556,0.0557,0,0,-0.0963,-0.1051,-0.1096,-0.1228,-0.1291,-0.1367,-0.1395,-0.1368,-0.1293,-0.1174,-0.1007,-0.0761,-0.0363,-0.0104,0.0178,0.0374,0.0367,0.0389,0.0376,0.024,0.0231,0.0425,0.0373,0,0,0,0,0]}],[{"header":{"parameterUnit":"m.s-1","parameterCategory":2,"la1":30.2991,"la2":30.254,"lo1":-89.0895,"lo2":-89.0444,"dy":0.0017,"dx":0.0017,"nx":28,"ny":28,"refTime":"2024-12-06T09:00:00:Z","depth":"4","parameterNumber":2,"parameterNumberName":"U-component_of_CURRENTS"},"data":[0,0,0,0,0,0,0,0,0,0,0,0,0,0,0,0,0,0,0,0,0,0,0,0,0,0,0,0,0,0,0,0,0,0,0,0,0,0,0,0,0,0,0,0,0,0,0,0,0,0,0,0,0,0,0,0,0,0,-0.1656,-0.1657,0,-0.1718,-0.1718,-0.1719,-0.1749,-0.1749,-0.1749,-0.1749,-0.1798,-0.1799,-0.18,0,0,0,0,0,0,0,0,0,0,0,0,0,-0.1561,-0.1563,-0.1656,-0.1657,-0.1658,-0.1717,-0.1718,-0.1719,-0.1749,-0.1749,-0.1749,-0.1749,-0.1797,-0.1799,-0.18,0,0,0,0,0,0,0,0,0,0,0,0,0,-0.1608,-0.1563,-0.1655,-0.1681,-0.1684,-0.1717,-0.1718,-0.1719,-0.1749,-0.1749,-0.1749,-0.175,-0.1797,-0.1799,-0.18,-0.1805,0,0,-0.1805,-0.1806,0,0,0,0,0,0,0,0,-0.1606,-0.1612,-0.1677,-0.168,-0.1683,-0.1728,-0.1703,-0.1748,-0.1749,-0.1722,-0.1749,-0.175,-0.1774,-0.1778,-0.1786,-0.1807,-0.1809,-0.1805,-0.1806,-0.1807,-0.1808,0,0,0,0,0,0,0,-0.1602,-0.1609,-0.1678,-0.1678,-0.1682,-0.1689,-0.1696,-0.1711,-0.1744,-0.1724,-0.1727,-0.1737,-0.1776,-0.1784,-0.1787,-0.181,-0.1805,-0.1807,-0.1808,-0.1809,-0.1904,-0.1905,0,0,0,0,0,0,-0.1599,-0.1606,-0.1676,-0.168,-0.1647,-0.1691,-0.1698,-0.1711,-0.1744,-0.175,-0.1737,-0.1739,-0.1781,-0.1785,-0.1789,-0.1863,-0.1807,-0.1809,-0.181,-0.1902,-0.1904,-0.1905,0,0,0,0,0,0,-0.1597,-0.1605,-0.1674,-0.1646,-0.1655,-0.1692,-0.1707,-0.1712,-0.1748,-0.1754,-0.176,-0.177,-0.1782,-0.1787,-0.1829,-0.1863,-0.1809,-0.1811,-0.19,-0.1903,-0.1905,-0.1969,0,0,0,0,0,0,-0.1594,-0.1604,-0.1624,-0.1646,-0.1657,-0.1712,-0.1707,-0.1714,-0.1753,-0.1756,-0.1784,-0.1787,-0.1782,-0.1827,-0.1831,-0.1864,-0.1812,-0.1898,-0.1901,-0.1904,-0.1965,-0.1973,-0.198,0,0,0,0,0,-0.159,-0.1613,-0.1625,-0.1634,-0.168,-0.1713,-0.172,-0.1745,-0.1755,-0.1777,-0.1798,-0.1788,-0.1847,-0.1829,-0.1834,-0.1868,-0.1897,-0.19,-0.1904,-0.1961,-0.1971,-0.198,0,0,0,0,0,0,-0.1584,-0.1619,-0.1632,-0.1666,-0.1697,-0.172,-0.1746,-0.1762,-0.1796,-0.1807,-0.1809,-0.1814,-0.1862,-0.1858,-0.1838,-0.1904,-0.187,-0.1874,-0.1912,-0.1922,-0.1929,-0.1921,-0.1814,0,0,0,0,0,-0.1592,-0.1619,-0.1651,-0.1681,-0.1699,-0.1729,-0.1751,-0.177,-0.1797,-0.1813,-0.1833,-0.1854,-0.1876,-0.1893,-0.1909,-0.1948,-0.1932,-0.1972,-0.198,-0.1986,-0.1984,-0.1988,-0.1995,-0.1917,-0.1917,-0.1917,0,0,-0.1598,-0.1621,-0.1639,-0.1682,-0.1708,-0.1744,-0.1743,-0.1786,-0.1822,-0.1812,-0.1873,-0.1885,-0.1892,-0.1935,-0.1956,-0.1939,-0.2003,-0.1991,-0.1996,-0.199,-0.1992,-0.2,-0.2006,-0.1919,-0.1919,-0.1918,0,0,-0.1615,-0.1647,-0.1674,-0.1705,-0.1753,-0.1772,-0.1792,-0.1834,-0.1862,-0.1915,-0.1917,-0.195,-0.1989,-0.1999,-0.2007,-0.2067,-0.2043,-0.2078,-0.2113,-0.2118,-0.2124,-0.2129,-0.2128,-0.2133,-0.2082,-0.2082,-0.2082,0,-0.1625,-0.1662,-0.1688,-0.1724,-0.1755,-0.1789,-0.1828,-0.1862,-0.1915,-0.1939,-0.1945,-0.2005,-0.2017,-0.2057,-0.208,-0.2084,-0.2079,-0.2077,-0.2127,-0.2131,-0.2135,-0.2133,-0.2137,-0.2086,-0.2085,-0.2085,-0.2085,0,-0.1653,-0.1697,-0.1718,-0.1774,-0.1811,-0.1852,-0.1898,-0.1944,-0.1981,-0.2008,-0.2067,-0.2083,-0.2112,-0.2129,-0.2125,-0.2166,-0.2151,-0.2135,-0.21,-0.2147,-0.2142,-0.2145,-0.2091,-0.2089,-0.2088,-0.2087,0,0,-0.1631,-0.1721,-0.1732,-0.1769,-0.1843,-0.1871,-0.194,-0.1999,-0.2041,-0.2092,-0.214,-0.2183,-0.2188,-0.2197,-0.22,-0.2209,-0.2243,-0.2191,-0.2189,-0.2185,-0.2253,-0.2117,-0.2107,-0.2236,-0.2236,-0.2237,-0.2241,0,-0.1648,-0.1716,-0.1762,-0.1836,-0.1874,-0.1933,-0.1991,-0.205,-0.2099,-0.2155,-0.218,-0.2225,-0.2215,-0.2236,-0.2246,-0.2245,-0.2252,-0.2243,-0.2212,-0.2211,-0.208,-0.2106,-0.2239,-0.2243,-0.2243,-0.2244,-0.2244,0,-0.1652,-0.17,-0.1774,-0.1867,-0.1891,-0.1944,-0.2033,-0.2089,-0.2168,-0.2207,-0.225,-0.2269,-0.2305,-0.2285,-0.2298,-0.2293,-0.2279,-0.227,-0.227,-0.2118,-0.208,-0.2184,-0.2249,-0.2249,-0.2248,-0.2248,-0.2248,0,-0.1602,-0.1705,-0.1765,-0.1798,-0.1908,-0.1958,-0.2018,-0.2104,-0.2151,-0.2237,-0.2271,-0.2314,-0.2337,-0.2333,-0.2319,-0.2315,-0.2317,-0.2306,-0.2169,-0.216,-0.2254,-0.2248,-0.2306,-0.2306,-0.2306,-0.2306,-0.2306,0,-0.1581,-0.1632,-0.1752,-0.1783,-0.1856,-0.1941,-0.2018,-0.2085,-0.2174,-0.2218,-0.2288,-0.2309,-0.2349,-0.2353,-0.2335,-0.2251,-0.2327,-0.217,-0.2147,-0.2283,-0.228,-0.2256,-0.225,-0.2306,-0.2306,-0.2306,-0.2306,0,-0.151,-0.1595,-0.1666,-0.1792,-0.1835,-0.1883,-0.2008,-0.2051,-0.2151,-0.2209,-0.2237,-0.2313,-0.2314,-0.233,-0.2326,-0.2249,-0.2202,-0.2155,-0.2302,-0.2289,-0.2042,-0.204,-0.2,-0.1995,-0.1991,-0.1987,-0.1985,0,-0.1477,-0.1509,-0.1649,-0.1689,-0.1752,-0.184,-0.1895,-0.202,-0.2058,-0.2185,-0.219,-0.2245,-0.2274,-0.2149,-0.219,-0.2139,-0.2112,-0.2074,-0.205,-0.2026,-0.2009,-0.2014,-0.2017,-0.1978,-0.1977,-0.1976,-0.1975,0,-0.1401,-0.1466,-0.1522,-0.1603,-0.1674,-0.1741,-0.1827,-0.184,-0.1972,-0.2089,-0.208,-0.2073,-0.2071,-0.2053,-0.2023,-0.1989,-0.2091,-0.203,-0.2038,-0.2016,-0.2,-0.1988,-0.1996,-0.196,-0.1963,-0.1964,-0.1965,0,-0.134,-0.1357,-0.1436,-0.1491,-0.1574,-0.16,-0.167,-0.171,-0.1764,-0.1909,-0.1903,-0.1967,-0.2052,-0.1975,-0.1952,-0.1903,-0.1873,-0.1803,-0.1823,-0.1839,-0.1782,-0.1737,-0.1591,0,0,0,0,0,-0.1267,-0.127,-0.1314,-0.1366,-0.1439,-0.1485,-0.16,-0.1672,-0.1804,-0.1749,-0.182,-0.1814,-0.1783,-0.1816,-0.1728,-0.1877,-0.1879,-0.1767,-0.1809,-0.1881,-0.1898,-0.1844,0,0,0,0,0,0,-0.1217,-0.1254,-0.1266,-0.1239,-0.1248,-0.1314,-0.1379,-0.148,-0.1456,-0.1598,-0.1584,-0.1696,-0.1686,-0.1798,-0.1687,-0.1697,-0.1683,-0.1819,-0.1814,-0.1872,-0.1887,-0.19,-0.1851,0,0,0,0,0]},{"header":{"parameterUnit":"m.s-1","parameterCategory":2,"la1":30.2991,"la2":30.254,"lo1":-89.0895,"lo2":-89.0444,"dy":0.0017,"dx":0.0017,"nx":28,"ny":28,"refTime":"2024-12-06T09:00:00:Z","depth":"4","parameterNumber":3,"parameterNumberName":"V-component_of_CURRENTS"},"data":[0,0,0,0,0,0,0,0,0,0,0,0,0,0,0,0,0,0,0,0,0,0,0,0,0,0,0,0,0,0,0,0,0,0,0,0,0,0,0,0,0,0,0,0,0,0,0,0,0,0,0,0,0,0,0,0,0,0,-0.0176,-0.0175,0,-0.0133,-0.0132,-0.0132,-0.01,-0.01,-0.0099,-0.0099,-0.0014,-0.0012,-0.0009,0,0,0,0,0,0,0,0,0,0,0,0,0,-0.019,-0.019,-0.0176,-0.0175,-0.0175,-0.0133,-0.0132,-0.0131,-0.01,-0.01,-0.0099,-0.0099,-0.0014,-0.0012,-0.0009,0,0,0,0,0,0,0,0,0,0,0,0,0,-0.0168,-0.019,-0.0176,-0.0155,-0.0153,-0.0133,-0.0132,-0.0131,-0.01,-0.01,-0.0099,-0.0099,-0.0015,-0.0012,-0.0009,0.0006,0,0,0.0001,0.0002,0,0,0,0,0,0,0,0,-0.0169,-0.0167,-0.0158,-0.0156,-0.0154,-0.0122,-0.0106,-0.0084,-0.01,-0.0119,-0.0099,-0.0099,-0.0047,-0.0041,-0.0033,0.001,0.0013,0.0001,0.0003,0.0004,0.0005,0,0,0,0,0,0,0,-0.0171,-0.0169,-0.0157,-0.0158,-0.0155,-0.0134,-0.0131,-0.0101,-0.0083,-0.0117,-0.0115,-0.0112,-0.0045,-0.0036,-0.003,0.0015,0.0001,0.0004,0.0006,0.0007,0.0073,0.0073,0,0,0,0,0,0,-0.0181,-0.0171,-0.0159,-0.0156,-0.0162,-0.0134,-0.013,-0.0132,-0.0084,-0.0077,-0.0112,-0.0111,-0.0041,-0.0034,-0.0027,-0.0015,0.0004,0.0007,0.0009,0.0073,0.0073,0.0073,0,0,0,0,0,0,-0.0182,-0.0181,-0.0161,-0.0163,-0.0159,-0.0135,-0.0136,-0.0131,-0.0124,-0.0081,-0.0073,-0.0111,-0.0041,-0.0031,-0.0006,-0.0011,0.0009,0.0012,0.0073,0.0073,0.0073,0.0015,0,0,0,0,0,0,-0.0182,-0.0181,-0.0187,-0.0164,-0.016,-0.0156,-0.0136,-0.013,-0.0123,-0.0121,-0.0077,-0.0069,-0.004,-0.0011,-0.0003,-0.0006,0.0014,0.0073,0.0073,0.0073,0.0017,0.0013,0.0009,0,0,0,0,0,-0.0183,-0.0194,-0.0188,-0.0186,-0.0168,-0.0157,-0.0152,-0.0132,-0.0124,-0.0125,-0.0095,-0.0071,-0.0007,-0.0008,0.0001,-0.0001,0.0073,0.0073,0.0073,0.0019,0.0014,0.0009,0,0,0,0,0,0,-0.0203,-0.0191,-0.0184,-0.0191,-0.0178,-0.0152,-0.0152,-0.0138,-0.0116,-0.0113,-0.0072,-0.0061,-0.0041,-0.0013,-0.0016,0.0017,0.0037,0.0039,-0.0007,-0.0012,-0.0016,-0.0026,0.0017,0,0,0,0,0,-0.0211,-0.0217,-0.0199,-0.0205,-0.0201,-0.0177,-0.0171,-0.0159,-0.0136,-0.0126,-0.0096,-0.0063,-0.0035,-0.0018,0.001,0.003,0.0064,0.0034,0.003,0.0027,0.0025,0.0072,0.0073,0.0071,0.0071,0.0071,0,0,-0.0221,-0.0215,-0.0218,-0.021,-0.0198,-0.02,-0.0173,-0.0169,-0.0168,-0.0119,-0.0109,-0.0077,-0.0034,-0.0015,-0.0003,0.0009,0.0044,0.0026,0.0023,0.0023,0.0072,0.0072,0.0072,0.0071,0.0071,0.0071,0,0,-0.0245,-0.0238,-0.0252,-0.0245,-0.0235,-0.0219,-0.0221,-0.0199,-0.0188,-0.0173,-0.0139,-0.011,-0.007,-0.0038,-0.0017,-0.0024,0.0019,-0.0017,-0.0042,0.0003,0.0004,0.0005,0.0042,0.0047,-0.0017,-0.0017,-0.0017,0,-0.0258,-0.0272,-0.0253,-0.0264,-0.0265,-0.0232,-0.0246,-0.0229,-0.0202,-0.0191,-0.0179,-0.0114,-0.008,-0.0048,-0.0052,-0.0033,-0.0003,-0.003,-0.0002,-0.0001,0.0001,0.0039,0.0045,-0.002,-0.002,-0.0019,-0.0019,0,-0.029,-0.0302,-0.031,-0.0314,-0.031,-0.0317,-0.0294,-0.0285,-0.0266,-0.0243,-0.0212,-0.0161,-0.0121,-0.0106,-0.0081,-0.0053,-0.0036,-0.0016,0.0007,-0.0002,0.0039,0.0046,-0.0024,-0.0023,-0.0022,-0.0021,0,0,-0.0316,-0.0332,-0.0335,-0.0351,-0.0339,-0.0343,-0.0338,-0.0324,-0.032,-0.0282,-0.0269,-0.0216,-0.0183,-0.0156,-0.0116,-0.0076,-0.004,-0.0047,-0.0043,-0.0015,0.0055,0.0053,0.0061,-0.0016,-0.0015,-0.0014,0.0076,0,-0.0349,-0.0389,-0.0381,-0.0414,-0.0432,-0.0405,-0.0406,-0.0386,-0.0356,-0.0333,-0.0271,-0.0243,-0.0202,-0.0184,-0.0138,-0.006,-0.0023,-0.0066,0.0065,0.0069,0.0064,0.0069,-0.0011,0.0082,0.0084,0.0085,0.0086,0,-0.0382,-0.0406,-0.0449,-0.0472,-0.0476,-0.0489,-0.0482,-0.0477,-0.0428,-0.0403,-0.0353,-0.0302,-0.0234,-0.0204,-0.0073,-0.0103,-0.0034,0.0025,0.0031,0.0054,0.008,0.0097,0.0099,0.0098,0.0097,0.0096,0.0096,0,-0.0416,-0.0453,-0.0493,-0.0501,-0.0517,-0.0531,-0.0533,-0.0501,-0.0499,-0.0445,-0.0429,-0.0337,-0.0292,-0.0187,-0.0061,-0.0066,0.0082,0.0095,0.0158,0.0158,0.0159,0.0157,0.0178,0.0178,0.0177,0.0177,0.0177,0,-0.0451,-0.0484,-0.0518,-0.0541,-0.0588,-0.0578,-0.0606,-0.0588,-0.0562,-0.0555,-0.0469,-0.0435,-0.0286,-0.0183,-0.007,0.007,0.0081,0.0155,0.0183,0.0132,0.0126,0.0164,0.0161,0.0181,0.018,0.0179,0.0179,0,-0.0478,-0.0499,-0.0553,-0.0592,-0.0608,-0.0642,-0.067,-0.0682,-0.0645,-0.063,-0.0616,-0.0503,-0.0362,-0.021,-0.0033,0.0052,0.0189,0.0231,0.0161,0.0184,0.0236,0.0229,0.031,0.0311,0.0312,0.0312,0.0313,0,-0.0494,-0.0525,-0.0597,-0.064,-0.0664,-0.071,-0.074,-0.0727,-0.0733,-0.0667,-0.066,-0.0532,-0.044,-0.0187,-0.0029,0.0189,0.0212,0.0278,0.0258,0.0231,0.0251,0.0243,0.0235,0.0314,0.0314,0.0314,0.0314,0,-0.0523,-0.0553,-0.0598,-0.0689,-0.0743,-0.0795,-0.0832,-0.0842,-0.0811,-0.0782,-0.0687,-0.0548,-0.039,-0.0192,-0.0024,0.013,0.0237,0.0284,0.0284,0.0266,0.0236,0.0253,0.0245,0.0316,0.0316,0.0316,0.0315,0,-0.0542,-0.0585,-0.0653,-0.0726,-0.0802,-0.0855,-0.0871,-0.0866,-0.0859,-0.0778,-0.0747,-0.0563,-0.0455,-0.0223,-0.0064,0.0087,0.0121,0.016,0.0166,0.0166,0.0096,0.0035,0.008,0,0,0,0,0,-0.0555,-0.0607,-0.0686,-0.0766,-0.0842,-0.0882,-0.0921,-0.0921,-0.0891,-0.0834,-0.0788,-0.0636,-0.0383,-0.027,-0.012,-0.0061,0.0138,0.0118,0.0184,0.0328,0.0325,0.0268,0,0,0,0,0,0,-0.0567,-0.0642,-0.0684,-0.078,-0.084,-0.0914,-0.0942,-0.0924,-0.0883,-0.083,-0.0697,-0.0609,-0.0367,-0.0471,-0.012,-0.0072,-0.0012,0.0242,0.0245,0.0329,0.0327,0.0325,0.0265,0,0,0,0,0]}]]